Dades meteomassalio
Diari Summary for Nil La, TWC- Units:  English    Metric   Both
« Previous Day
Next Day »
Diari Semanal Mensual Anual Personalitzat
  Maxima: Minima: Mijana:
Temperatura: TemperatureC °F 3.9 °F 4.7 °F
Rosada: DewpointC °F 2.7 °F 3.6 °F
Humitat: Humidity % 91 % 89 %
Velocitat del vent: WindSpeedKMH mph 6.4 mph 15.5 mph
Racha vent: WindSpeedGustKMH mph - -
Vent:- - NW
Pressio: PressurehPa in 1013.8 in -
Pluja: 3.3 in    
Historical Graphs
 
 
Tabular Data for Nil La, TWC-
Time Temperature Dew Point Pressure Wind Wind Speed Wind Gust Humidity Rainfall Rate (Hourly) solar Conditions
TemperatureC °F DewpointC °F PressurehPa in Calm     Humidity % HourlyPrecipMM in SolarRadiationWatts/m^2 W/m2 Conditions
09:54 3.9 °F 2.7 °F 1013.8 in NW 14.5 mph 8.7 mph 92 % 0.5 in 14.00 W/m2 BKN
09:59 3.9 °F 2.7 °F 1013.8 in NW 16.7 mph 12.6 mph 92 % 0.5 in 14.00 W/m2 BKN
10:04 3.9 °F 2.8 °F 1013.8 in WNW 11.1 mph 10.0 mph 93 % 0.5 in 18.00 W/m2 BKN
10:09 3.9 °F 2.8 °F 1013.9 in NW 16.7 mph 12.9 mph 93 % 0.5 in 25.00 W/m2 BKN
10:14 3.9 °F 2.8 °F 1013.9 in NW 18.5 mph 11.6 mph 93 % 0.3 in 23.00 W/m2 BKN
10:19 3.9 °F 2.7 °F 1014.1 in NW 18.5 mph 9.8 mph 92 % 0.3 in 21.00 W/m2 BKN
10:24 3.9 °F 2.7 °F 1014.0 in NW 18.5 mph 12.7 mph 92 % 0.3 in 30.00 W/m2 BKN
10:29 3.9 °F 2.8 °F 1014.1 in NW 16.7 mph 10.1 mph 93 % 0.3 in 51.00 W/m2 BKN
10:34 4.4 °F 3.4 °F 1014.2 in NNW 19.3 mph 15.8 mph 93 % 0.5 in 39.00 W/m2 RA
10:39 4.4 °F 3.4 °F 1014.3 in NW 16.7 mph 11.6 mph 93 % 0.5 in 33.00 W/m2 BKN
10:44 4.4 °F 3.3 °F 1014.3 in NW 11.1 mph 3.1 mph 92 % 0.3 in 51.00 W/m2 BKN
10:49 4.4 °F 3.3 °F 1014.3 in NW 20.9 mph 14.6 mph 92 % 0.3 in 49.00 W/m2 SCT
10:54 4.4 °F 3.4 °F 1014.5 in NW 19.3 mph 9.8 mph 93 % 0.3 in 46.00 W/m2 SCT
10:59 4.4 °F 3.4 °F 1014.5 in NW 18.5 mph 9.0 mph 93 % 0.3 in 76.00 W/m2 SCT
11:04 4.4 °F 3.4 °F 1014.6 in NW 14.8 mph 9.7 mph 93 % 0.3 in 69.00 W/m2 SCT
11:09 5.0 °F 3.8 °F 1014.7 in NW 13.0 mph 9.5 mph 92 % 0.3 in 60.00 W/m2 SCT
11:14 5.0 °F 3.8 °F 1014.7 in NW 22.2 mph 12.1 mph 92 % 0.3 in 70.00 W/m2 SCT
11:19 5.0 °F 3.8 °F 1014.8 in NW 11.1 mph 9.3 mph 92 % 0.3 in 76.00 W/m2 SCT
11:24 5.0 °F 3.8 °F 1014.8 in WNW 16.7 mph 9.2 mph 92 % 0.3 in 70.00 W/m2 FEW
11:29 5.0 °F 3.8 °F 1014.8 in WNW 9.3 mph 9.0 mph 92 % 0.3 in 79.00 W/m2 FEW
11:34 5.0 °F 3.8 °F 1014.7 in WNW 22.2 mph 10.9 mph 92 % 0.0 in 70.00 W/m2 FEW
11:39 5.0 °F 3.8 °F 1014.8 in NW 13.0 mph 9.8 mph 92 % 0.0 in 160.00 W/m2 FEW
11:44 5.6 °F 4.3 °F 1014.8 in WNW 14.8 mph 7.4 mph 92 % 0.0 in 162.00 W/m2 CLR
11:49 5.6 °F 4.3 °F 1014.8 in WNW 16.7 mph 8.4 mph 92 % 0.0 in 165.00 W/m2 CLR
11:54 5.6 °F 4.3 °F 1014.8 in NNW 16.7 mph 13.4 mph 92 % 0.0 in 156.00 W/m2 CLR
11:59 6.1 °F 4.9 °F 1014.8 in NW 20.4 mph 12.1 mph 92 % 0.0 in 105.00 W/m2 CLR
12:04 6.1 °F 4.9 °F 1014.9 in NW 20.4 mph 8.0 mph 92 % 0.0 in 83.00 W/m2 CLR
12:09 6.1 °F 4.8 °F 1014.8 in North 16.1 mph 8.4 mph 91 % 0.0 in 86.00 W/m2 CLR
12:14 6.1 °F 4.8 °F 1014.8 in NW 6.4 mph 6.3 mph 91 % 0.0 in 79.00 W/m2 FEW
12:19 6.1 °F 4.8 °F 1014.6 in WNW 7.4 mph 6.8 mph 91 % 0.0 in 97.00 W/m2 CLR
12:24 6.1 °F 4.8 °F 1014.5 in NNW 18.5 mph 10.0 mph 91 % 0.0 in 83.00 W/m2 CLR
Lo Temps de Massalio
Compliments of Weather Underground - 512 kb